Location: Brabourne
(51.1333°N, 1.0000°E)
Time: 12:24:17
(UTC+00:00)

ADEOS Rocket - Pass Details

Date: 25 October 2021
Orbit: 858 x 1307 km, 98.8° (Epoch: 26 November)

Event Time Altitude Azimuth Distance (km) Brightness Sun altitude
Exits shadow 22:21:11 11° 25° (NNE) 3,003 5.8 -48.1°
Drops below altitude 10° 22:22:07 10° 17° (NNE) 3,095 5.9 -48.2°
Sets 22:26:25 0° 351° (N) 3,959 6.8 -48.5°
